Location: Burla
(50.9568°N, 10.4983°E)
Time: 09:08:08
(UTC+00:00)

Cosmos 2082 Rocket - Pass Details

Date: 18 January 2026
Orbit: 831 x 853 km, 71.0° (Epoch: 19 February)

Event Time Altitude Azimuth Distance (km) Brightness Sun altitude
Exits shadow 04:12:05 40° 356° (N) 1,234 2.9 -27.7°
Maximum altitude 04:13:58 60° 55° (NE) 970 2.6 -27.4°
Drops below altitude 10° 04:19:34 10° 135° (SE) 2,472 5.2 -26.5°
Sets 04:22:03 0° 139° (SE) 3,407 5.9 -26.2°
